Location: Brachbach
(49.1847°N, 9.7240°E)
Time: 07:06:42
(UTC+00:00)

FO-29 - Pass Details

Date: 16 March 2026
Orbit: 801 x 1320 km, 98.5° (Epoch: 17 April)

Event Time Altitude Azimuth Distance (km) Brightness Sun altitude
Rises 20:06:21 0° 13° (NNE) 4,099 13.0 -25.6°
Reaches altitude 10° 20:08:54 10° 14° (NNE) 3,188 12.4 -26.0°
Maximum altitude 20:16:24 86° 288° (WNW) 1,302 10.0 -27.0°
Drops below altitude 10° 20:24:17 10° 199° (SSW) 3,341 12.1 -28.1°
Sets 20:27:00 0° 199° (SSW) 4,305 12.7 -28.4°
